Time,TemperatureF,DewpointF,PressureIn,WindDirection,WindDirectionDegrees,WindSpeedMPH,WindSpeedGustMPH,Humidity,HourlyPrecipIn,Conditions,Clouds,dailyrainin,SoftwareType,DateUTC
2013-04-10 00:03:00,40.0,-99.9,-100.00,North,-999,-999.0,-999.0,-999,0.00,,,0.17,,2013-04-10 04:03:00,
2013-04-10 00:13:00,40.0,-99.9,-100.00,North,-999,-999.0,-999.0,-999,0.00,,,0.17,,2013-04-10 04:13:00,
2013-04-10 00:23:00,40.0,-99.9,-100.00,North,-999,-999.0,-999.0,-999,0.00,,,0.17,,2013-04-10 04:23:00,
2013-04-10 00:33:00,40.0,-99.9,-100.00,North,-999,-999.0,-999.0,-999,0.00,,,0.17,,2013-04-10 04:33:00,
2013-04-10 00:43:00,40.0,-99.9,-100.00,North,-999,-999.0,-999.0,-999,0.00,,,0.17,,2013-04-10 04:43:00,
2013-04-10 01:03:00,39.0,-99.9,-100.00,North,-999,-999.0,-999.0,-999,0.00,,,0.17,,2013-04-10 05:03:00,
2013-04-10 01:13:00,39.0,-99.9,-100.00,North,-999,-999.0,-999.0,-999,0.00,,,0.17,,2013-04-10 05:13:00,
2013-04-10 01:23:00,39.0,-99.9,-100.00,North,-999,-999.0,-999.0,-999,0.00,,,0.17,,2013-04-10 05:23:00,
2013-04-10 01:34:00,39.0,-99.9,-100.00,North,-999,-999.0,-999.0,-999,0.00,,,0.17,,2013-04-10 05:34:00,
2013-04-10 01:43:00,39.0,-99.9,-100.00,North,-999,-999.0,-999.0,-999,0.00,,,0.17,,2013-04-10 05:43:00,
2013-04-10 02:04:00,38.0,-99.9,-100.00,North,-999,-999.0,-999.0,-999,0.05,,,0.22,,2013-04-10 06:04:00,
2013-04-10 02:13:00,38.0,-99.9,-100.00,North,-999,-999.0,-999.0,-999,0.05,,,0.22,,2013-04-10 06:13:00,
2013-04-10 02:22:00,38.0,-99.9,-100.00,North,-999,-999.0,-999.0,-999,0.05,,,0.22,,2013-04-10 06:22:00,
2013-04-10 02:32:00,38.0,-99.9,-100.00,North,-999,-999.0,-999.0,-999,0.05,,,0.22,,2013-04-10 06:32:00,
2013-04-10 02:43:00,38.0,-99.9,-100.00,North,-999,-999.0,-999.0,-999,0.05,,,0.22,,2013-04-10 06:43:00,
2013-04-10 03:03:00,40.0,-99.9,-100.00,North,-999,-999.0,-999.0,-999,0.12,,,0.34,,2013-04-10 07:03:00,
2013-04-10 03:12:00,40.0,-99.9,-100.00,North,-999,-999.0,-999.0,-999,0.12,,,0.34,,2013-04-10 07:12:00,
2013-04-10 03:23:00,40.0,-99.9,-100.00,North,-999,-999.0,-999.0,-999,0.12,,,0.34,,2013-04-10 07:23:00,
2013-04-10 03:33:00,40.0,-99.9,-100.00,North,-999,-999.0,-999.0,-999,0.12,,,0.34,,2013-04-10 07:33:00,
2013-04-10 03:43:00,40.0,-99.9,-100.00,North,-999,-999.0,-999.0,-999,0.12,,,0.34,,2013-04-10 07:43:00,
2013-04-10 04:03:00,41.0,-99.9,-100.00,North,-999,-999.0,-999.0,-999,0.13,,,0.43,,2013-04-10 08:03:00,
2013-04-10 04:12:00,41.0,-99.9,-100.00,North,-999,-999.0,-999.0,-999,0.13,,,0.43,,2013-04-10 08:12:00,
2013-04-10 04:22:00,41.0,-99.9,-100.00,North,-999,-999.0,-999.0,-999,0.13,,,0.43,,2013-04-10 08:22:00,
2013-04-10 04:32:00,41.0,-99.9,-100.00,North,-999,-999.0,-999.0,-999,0.13,,,0.43,,2013-04-10 08:32:00,
2013-04-10 04:43:00,41.0,-99.9,-100.00,North,-999,-999.0,-999.0,-999,0.13,,,0.43,,2013-04-10 08:43:00,
2013-04-10 05:03:00,39.0,-99.9,-100.00,North,-999,-999.0,-999.0,-999,0.02,,,0.38,,2013-04-10 09:03:00,
2013-04-10 05:13:00,39.0,-99.9,-100.00,North,-999,-999.0,-999.0,-999,0.02,,,0.38,,2013-04-10 09:13:00,
2013-04-10 05:23:00,39.0,-99.9,-100.00,North,-999,-999.0,-999.0,-999,0.02,,,0.38,,2013-04-10 09:23:00,
2013-04-10 05:33:00,39.0,-99.9,-100.00,North,-999,-999.0,-999.0,-999,0.02,,,0.38,,2013-04-10 09:33:00,
2013-04-10 05:43:00,39.0,-99.9,-100.00,North,-999,-999.0,-999.0,-999,0.02,,,0.38,,2013-04-10 09:43:00,
2013-04-10 06:03:00,39.0,-99.9,-100.00,North,-999,-999.0,-999.0,-999,0.02,,,0.35,,2013-04-10 10:03:00,
2013-04-10 06:23:00,39.0,-99.9,-100.00,North,-999,-999.0,-999.0,-999,0.02,,,0.35,,2013-04-10 10:23:00,
2013-04-10 06:33:00,39.0,-99.9,-100.00,North,-999,-999.0,-999.0,-999,0.02,,,0.35,,2013-04-10 10:33:00,
2013-04-10 06:43:00,39.0,-99.9,-100.00,North,-999,-999.0,-999.0,-999,0.02,,,0.35,,2013-04-10 10:43:00,
2013-04-10 07:03:00,39.0,-99.9,-100.00,North,-999,-999.0,-999.0,-999,0.00,,,-99.99,,2013-04-10 11:03:00,
2013-04-10 07:12:00,39.0,-99.9,-100.00,North,-999,-999.0,-999.0,-999,0.00,,,-99.99,,2013-04-10 11:12:00,
2013-04-10 07:22:00,39.0,-99.9,-100.00,North,-999,-999.0,-999.0,-999,0.00,,,-99.99,,2013-04-10 11:22:00,
2013-04-10 07:33:00,39.0,-99.9,-100.00,North,-999,-999.0,-999.0,-999,0.00,,,-99.99,,2013-04-10 11:33:00,
2013-04-10 07:42:00,39.0,-99.9,-100.00,North,-999,-999.0,-999.0,-999,0.00,,,-99.99,,2013-04-10 11:42:00,
2013-04-10 08:03:00,38.0,-99.9,-100.00,North,-999,-999.0,-999.0,-999,0.01,,,0.35,,2013-04-10 12:03:00,
2013-04-10 08:13:00,38.0,-99.9,-100.00,North,-999,-999.0,-999.0,-999,0.01,,,0.35,,2013-04-10 12:13:00,
2013-04-10 08:23:00,38.0,-99.9,-100.00,North,-999,-999.0,-999.0,-999,0.01,,,0.35,,2013-04-10 12:23:00,
2013-04-10 08:33:00,38.0,-99.9,-100.00,North,-999,-999.0,-999.0,-999,0.01,,,0.35,,2013-04-10 12:33:00,
2013-04-10 08:43:00,38.0,-99.9,-100.00,North,-999,-999.0,-999.0,-999,0.01,,,0.35,,2013-04-10 12:43:00,
2013-04-10 09:02:00,40.0,-99.9,-100.00,North,-999,-999.0,-999.0,-999,0.00,,,0.35,,2013-04-10 13:02:00,
2013-04-10 09:12:00,40.0,-99.9,-100.00,North,-999,-999.0,-999.0,-999,0.00,,,0.35,,2013-04-10 13:12:00,
2013-04-10 09:24:00,40.0,-99.9,-100.00,North,-999,-999.0,-999.0,-999,0.00,,,0.35,,2013-04-10 13:24:00,
2013-04-10 09:33:00,40.0,-99.9,-100.00,North,-999,-999.0,-999.0,-999,0.00,,,0.35,,2013-04-10 13:33:00,
2013-04-10 09:43:00,40.0,-99.9,-100.00,North,-999,-999.0,-999.0,-999,0.00,,,0.35,,2013-04-10 13:43:00,
2013-04-10 10:03:00,44.0,-99.9,-100.00,North,-999,-999.0,-999.0,-999,0.00,,,0.35,,2013-04-10 14:03:00,
2013-04-10 10:13:00,44.0,-99.9,-100.00,North,-999,-999.0,-999.0,-999,0.00,,,0.35,,2013-04-10 14:13:00,
2013-04-10 10:22:00,44.0,-99.9,-100.00,North,-999,-999.0,-999.0,-999,0.00,,,0.35,,2013-04-10 14:22:00,
2013-04-10 10:33:00,44.0,-99.9,-100.00,North,-999,-999.0,-999.0,-999,0.00,,,0.35,,2013-04-10 14:33:00,
2013-04-10 10:43:00,44.0,-99.9,-100.00,North,-999,-999.0,-999.0,-999,0.00,,,0.35,,2013-04-10 14:43:00,
2013-04-10 11:03:00,48.0,-99.9,-100.00,North,-999,-999.0,-999.0,-999,0.00,,,0.35,,2013-04-10 15:03:00,
2013-04-10 11:12:00,48.0,-99.9,-100.00,North,-999,-999.0,-999.0,-999,0.00,,,0.35,,2013-04-10 15:12:00,
2013-04-10 11:23:00,48.0,-99.9,-100.00,North,-999,-999.0,-999.0,-999,0.00,,,0.35,,2013-04-10 15:23:00,
2013-04-10 11:33:00,48.0,-99.9,-100.00,North,-999,-999.0,-999.0,-999,0.00,,,0.35,,2013-04-10 15:33:00,
2013-04-10 11:43:00,48.0,-99.9,-100.00,North,-999,-999.0,-999.0,-999,0.00,,,0.35,,2013-04-10 15:43:00,
2013-04-10 12:03:00,50.0,-99.9,-100.00,North,-999,-999.0,-999.0,-999,0.00,,,0.35,,2013-04-10 16:03:00,
2013-04-10 12:13:00,50.0,-99.9,-100.00,North,-999,-999.0,-999.0,-999,0.00,,,0.35,,2013-04-10 16:13:00,
2013-04-10 12:34:00,50.0,-99.9,-100.00,North,-999,-999.0,-999.0,-999,0.00,,,0.35,,2013-04-10 16:34:00,
2013-04-10 12:44:00,50.0,-99.9,-100.00,North,-999,-999.0,-999.0,-999,0.00,,,0.35,,2013-04-10 16:44:00,
2013-04-10 13:03:00,50.0,-99.9,-100.00,North,-999,-999.0,-999.0,-999,0.00,,,0.35,,2013-04-10 17:03:00,
2013-04-10 13:13:00,50.0,-99.9,-100.00,North,-999,-999.0,-999.0,-999,0.00,,,0.35,,2013-04-10 17:13:00,
2013-04-10 13:23:00,50.0,-99.9,-100.00,North,-999,-999.0,-999.0,-999,0.00,,,0.35,,2013-04-10 17:23:00,
2013-04-10 13:34:00,50.0,-99.9,-100.00,North,-999,-999.0,-999.0,-999,0.00,,,0.35,,2013-04-10 17:34:00,
2013-04-10 13:43:00,50.0,-99.9,-100.00,North,-999,-999.0,-999.0,-999,0.00,,,0.35,,2013-04-10 17:43:00,
2013-04-10 14:04:00,51.0,-99.9,-100.00,North,-999,-999.0,-999.0,-999,0.00,,,0.35,,2013-04-10 18:04:00,
2013-04-10 14:13:00,51.0,-99.9,-100.00,North,-999,-999.0,-999.0,-999,0.00,,,0.35,,2013-04-10 18:13:00,
2013-04-10 14:23:00,51.0,-99.9,-100.00,North,-999,-999.0,-999.0,-999,0.00,,,0.35,,2013-04-10 18:23:00,
2013-04-10 14:33:00,51.0,-99.9,-100.00,North,-999,-999.0,-999.0,-999,0.00,,,0.35,,2013-04-10 18:33:00,
2013-04-10 14:43:00,51.0,-99.9,-100.00,North,-999,-999.0,-999.0,-999,0.00,,,0.35,,2013-04-10 18:43:00,
2013-04-10 15:04:00,52.0,-99.9,-100.00,North,-999,-999.0,-999.0,-999,0.00,,,0.35,,2013-04-10 19:04:00,
2013-04-10 15:13:00,52.0,-99.9,-100.00,North,-999,-999.0,-999.0,-999,0.00,,,0.35,,2013-04-10 19:13:00,
2013-04-10 15:23:00,52.0,-99.9,-100.00,North,-999,-999.0,-999.0,-999,0.00,,,0.35,,2013-04-10 19:23:00,
2013-04-10 15:34:00,52.0,-99.9,-100.00,North,-999,-999.0,-999.0,-999,0.00,,,0.35,,2013-04-10 19:34:00,
2013-04-10 15:43:00,52.0,-99.9,-100.00,North,-999,-999.0,-999.0,-999,0.00,,,0.35,,2013-04-10 19:43:00,
2013-04-10 16:03:00,50.0,-99.9,-100.00,North,-999,-999.0,-999.0,-999,0.00,,,0.35,,2013-04-10 20:03:00,
2013-04-10 16:12:00,50.0,-99.9,-100.00,North,-999,-999.0,-999.0,-999,0.00,,,0.35,,2013-04-10 20:12:00,
2013-04-10 16:33:00,50.0,-99.9,-100.00,North,-999,-999.0,-999.0,-999,0.00,,,0.35,,2013-04-10 20:33:00,
2013-04-10 16:43:00,50.0,-99.9,-100.00,North,-999,-999.0,-999.0,-999,0.00,,,0.35,,2013-04-10 20:43:00,
2013-04-10 17:03:00,50.0,-99.9,-100.00,North,-999,-999.0,-999.0,-999,0.00,,,0.35,,2013-04-10 21:03:00,
2013-04-10 17:13:00,50.0,-99.9,-100.00,North,-999,-999.0,-999.0,-999,0.00,,,0.35,,2013-04-10 21:13:00,
2013-04-10 17:22:00,50.0,-99.9,-100.00,North,-999,-999.0,-999.0,-999,0.00,,,0.35,,2013-04-10 21:22:00,
2013-04-10 17:33:00,50.0,-99.9,-100.00,North,-999,-999.0,-999.0,-999,0.00,,,0.35,,2013-04-10 21:33:00,
2013-04-10 17:43:00,50.0,-99.9,-100.00,North,-999,-999.0,-999.0,-999,0.00,,,0.35,,2013-04-10 21:43:00,
2013-04-10 18:03:00,50.0,-99.9,-100.00,North,-999,-999.0,-999.0,-999,0.00,,,0.35,,2013-04-10 22:03:00,
2013-04-10 18:13:00,50.0,-99.9,-100.00,North,-999,-999.0,-999.0,-999,0.00,,,0.35,,2013-04-10 22:13:00,
2013-04-10 18:23:00,50.0,-99.9,-100.00,North,-999,-999.0,-999.0,-999,0.00,,,0.35,,2013-04-10 22:23:00,
2013-04-10 18:34:00,50.0,-99.9,-100.00,North,-999,-999.0,-999.0,-999,0.00,,,0.35,,2013-04-10 22:34:00,
2013-04-10 18:43:00,50.0,-99.9,-100.00,North,-999,-999.0,-999.0,-999,0.00,,,0.35,,2013-04-10 22:43:00,
2013-04-10 19:03:00,46.0,-99.9,-100.00,North,-999,-999.0,-999.0,-999,0.00,,,0.35,,2013-04-10 23:03:00,
2013-04-10 19:13:00,46.0,-99.9,-100.00,North,-999,-999.0,-999.0,-999,0.00,,,0.35,,2013-04-10 23:13:00,
2013-04-10 19:23:00,46.0,-99.9,-100.00,North,-999,-999.0,-999.0,-999,0.00,,,0.35,,2013-04-10 23:23:00,
2013-04-10 19:33:00,46.0,-99.9,-100.00,North,-999,-999.0,-999.0,-999,0.00,,,0.35,,2013-04-10 23:33:00,
2013-04-10 19:43:00,46.0,-99.9,-100.00,North,-999,-999.0,-999.0,-999,0.00,,,0.35,,2013-04-10 23:43:00,
2013-04-10 20:13:00,45.0,-99.9,-100.00,North,-999,-999.0,-999.0,-999,0.00,,,0.35,,2013-04-11 00:13:00,
2013-04-10 20:23:00,45.0,-99.9,-100.00,North,-999,-999.0,-999.0,-999,0.00,,,0.35,,2013-04-11 00:23:00,
2013-04-10 20:32:00,45.0,-99.9,-100.00,North,-999,-999.0,-999.0,-999,0.00,,,0.35,,2013-04-11 00:32:00,
2013-04-10 20:43:00,45.0,-99.9,-100.00,North,-999,-999.0,-999.0,-999,0.00,,,0.35,,2013-04-11 00:43:00,
2013-04-10 21:03:00,44.0,-99.9,-100.00,North,-999,-999.0,-999.0,-999,0.04,,,0.39,,2013-04-11 01:03:00,
2013-04-10 21:13:00,44.0,-99.9,-100.00,North,-999,-999.0,-999.0,-999,0.04,,,0.39,,2013-04-11 01:13:00,
2013-04-10 21:22:00,44.0,-99.9,-100.00,North,-999,-999.0,-999.0,-999,0.04,,,0.39,,2013-04-11 01:22:00,
2013-04-10 21:33:00,44.0,-99.9,-100.00,North,-999,-999.0,-999.0,-999,0.04,,,0.39,,2013-04-11 01:33:00,
2013-04-10 21:43:00,44.0,-99.9,-100.00,North,-999,-999.0,-999.0,-999,0.04,,,0.39,,2013-04-11 01:43:00,
2013-04-10 22:03:00,41.0,-99.9,-100.00,North,-999,-999.0,-999.0,-999,0.06,,,0.45,,2013-04-11 02:03:00,
2013-04-10 22:13:00,41.0,-99.9,-100.00,North,-999,-999.0,-999.0,-999,0.06,,,0.45,,2013-04-11 02:13:00,
2013-04-10 22:22:00,41.0,-99.9,-100.00,North,-999,-999.0,-999.0,-999,0.06,,,0.45,,2013-04-11 02:22:00,
2013-04-10 22:32:00,41.0,-99.9,-100.00,North,-999,-999.0,-999.0,-999,0.06,,,0.45,,2013-04-11 02:32:00,
2013-04-10 22:43:00,41.0,-99.9,-100.00,North,-999,-999.0,-999.0,-999,0.06,,,0.45,,2013-04-11 02:43:00,
2013-04-10 23:12:00,41.0,-99.9,-100.00,North,-999,-999.0,-999.0,-999,0.03,,,0.48,,2013-04-11 03:12:00,
2013-04-10 23:23:00,41.0,-99.9,-100.00,North,-999,-999.0,-999.0,-999,0.03,,,0.48,,2013-04-11 03:23:00,
2013-04-10 23:34:00,41.0,-99.9,-100.00,North,-999,-999.0,-999.0,-999,0.03,,,0.48,,2013-04-11 03:34:00,
2013-04-10 23:43:00,41.0,-99.9,-100.00,North,-999,-999.0,-999.0,-999,0.03,,,0.48,,2013-04-11 03:43:00,